Regional Weather Roundup
Issued by NWS Mobile, AL

Home | Current Version | Previous Version | Text Only | Print | Product List | Glossary On
Versions: 1 2 3 4 5 6 7 8 9 10 11 12 13 14 15 16 17 18 19 20 21 22 23 24 25 26 27 28 29 30 31 32 33 34 35 36 37 38 39 40 41 42 43 44 45 46 47 48 49 50
000
ASUS44 KMOB 310310
RWRMOB
REGIONAL WEATHER ROUNDUP
NATIONAL WEATHER SERVICE MOBILE AL
1000 PM CDT SAT AUG 30 2014

NOTE: "FAIR" INDICATES FEW OR NO CLOUDS BELOW 12,000 FEET WITH NO
      SIGNIFICANT WEATHER AND/OR OBSTRUCTIONS TO VISIBILITY.

  * THESE STATIONS ARE PART OF THE UNIVERSITY OF SOUTH ALABAMA
    MESONET AND ARE NOT UNDER NWS OR FAA QUALITY CONTROL.

ALZ061>064-310400-
COASTAL ALABAMA

CITY           SKY/WX    TMP DP  RH WIND       PRES   REMARKS
MOBILE REG APT PTCLDY    77  75  93 CALM      30.09S
BROOKLEY FIELD RAIN      77  76  96 W3        30.10R
USA CAMPUS*      N/A     75  75 100 CALM      30.08R
DOG RIVER*       N/A     77  77 100 CALM      30.09R


CITY           SKY/WX    TMP DP  RH WIND       PRES   REMARKS
MOUNT VERNON*    N/A     72  72 100 CALM      30.10R
SARALAND*      NOT AVBL
BAY MINETTE*   NOT AVBL
LOXLEY*          N/A     73  72  94 CALM      30.10R
ROBERTSDALE*     N/A    N/A N/A N/A CALM      30.09R
FAIRHOPE*        N/A     75  73  94 CALM      30.08R
ELBERTA*         N/A     82  70  65 CALM      30.08R
FOLEY*         NOT AVBL
GRAND BAY*       N/A     75  73  94 CALM      30.07R
DAUPHIN ISLND* NOT AVBL
BON SCOUR NWR* NOT AVBL
GULF SHORES    MOCLDY    83  78  86 SE6       30.08R

$$

ALZ051>060-310400-
INTERIOR SOUTHWEST AND SOUTH CENTRAL ALABAMA

CITY           SKY/WX    TMP DP  RH WIND       PRES   REMARKS
GREENVILLE     MOCLDY    75  71  87 E3        30.11
EVERGREEN      MOCLDY    79  74  84 S3        30.11R
CASTLEBERRY*   NOT AVBL
ATMORE*          N/A     73  73 100 CALM      30.11R
DIXIE*         NOT AVBL
ANDALUSIA/OPP  MOCLDY    81  74  79 CALM      30.11R
ANDALUSIA*     NOT AVBL
FLORALA APT    MOCLDY    79  74  84 CALM      30.13R
FLORALA*         N/A     75  73  94 CALM      30.09R

$$

FLZ001>006-310400-
WESTERN FLORIDA PANHANDLE

CITY           SKY/WX    TMP DP  RH WIND       PRES   REMARKS
PENSACOLA      MOCLDY    81  77  88 S6        30.09R
NAS PENSACOLA  MOCLDY    83  78  85 S6        30.09R
MILTON           N/A     78  75  90 CALM      30.10R
WHTNG S FIELD    N/A    N/A N/A N/A MISG      30.10R


CITY           SKY/WX    TMP DP  RH WIND       PRES   REMARKS
WALNUT HILL*   NOT AVBL
JAY*           NOT AVBL
DUKE FIELD     CLOUDY    79  77  93 CALM      30.10R
CRESTVIEW      MOCLDY    79  75  87 CALM      30.12R
VALPARAISO     CLOUDY    84  78  82 S5        30.10R HX  95
DESTIN         CLOUDY    87  76  69 CALM      30.10R HX  97

$$

MSZ076-079-310400-
INTERIOR SOUTHEAST MISSISSIPPI

CITY           SKY/WX    TMP DP  RH WIND       PRES   REMARKS
LEAKESVILLE*     N/A     72  72 100 E2          N/A
AGRICOLA*      NOT AVBL

$$

MARINE OBSERVATIONS

STATION/POSITION TIME  TEMP    WIND        PRES    WAVE
                       AIR SEA DIR/SP/G            HT/PER
                 (UTC) (F)     (DEG/KT/KT) (MB)    (FT/S)
PASCAGOULA       0300   79      50/  3/  4 1018.1R
PETIT BOIS ISLND 0300   85     180/ 10/ 11 1018.5R
GRAND BAY        0200   79     360/  3     1019.0S
KATRINA CUT      0200   85     170/ 12     1018.6R
CEDAR POINT      0200   84     170/  9     1018.0F
E DAUPHIN ISLAND 0200   85     160/ 11/ 13 1018.0R
MIDDLE BAY LIGHT 0200   85     170/ 11     1018.0R
USCG MOBILE BAY  0300   78 86  310/  2/  3 1017.6R
STATE DOCKS      0300   79 85              1018.4R
MEAHER PARK      0200   78      90/  3     1018.3R
WEEKS BAY        0200   80                   N/A
FORT MORGAN      0300   85     190/ 12/ 14 1018.0R
12 S ORANGE BCH  0300   85 86  180/ 10/ 12 1018.7R   3/ 5
PENSACOLA BAY    0300   86 86  170/  4/  7 1019.1R
64 S DAUPHIN ISL 0151   85 85  150/ 10/ 10 1018.6R

$$

SELECTED LOCATIONS ACROSS THE REGION

CITY           SKY/WX    TMP DP  RH WIND       PRES   REMARKS
NEW ORLEANS    CLOUDY    76  73  91 S3        30.06R
GULFPORT       CLOUDY    76  74  93 CALM      30.06R
PASCAGOULA AP  PTCLDY    74  73  97 CALM      30.08R
PASCAGOULA*      N/A     77  73  88 CALM      30.07R
HATTIESBURG    MOCLDY    75  73  93 CALM      30.08R
LAUREL         MOCLDY    73  70  88 SE5       30.09R
MERIDIAN       CLOUDY    72  71  97 S3        30.08R
JACKSON        CLOUDY    75  73  93 SE9       30.05R
MONTGOMERY     MOCLDY    75  72  90 CALM      30.12R
TROY           MOCLDY    77  73  87 CALM      30.13R
KINSTON*       NOT AVBL
GENEVA*          N/A     77  73  88 CALM      30.13R
ASHFORD*       NOT AVBL
DOTHAN         CLOUDY    80  73  79 CALM      30.15R
PANAMA CITY    MOCLDY    80  76  87 CALM      30.09R

$$



USA.gov is the U.S. government's official web portal to all federal, state and local government web resources and services.